This demonstration page uses our WeatherBlox Daily Observations layout. Learn more.

Left ArrowRight Arrow

39.08367, -84.50855

Hourly Observations for September 3, 2017

Temp ( °F °C ) Dew Point ( °F °C ) Humidity (%) Winds ( mph kmh ) Pressure ( in mb ) Visibility ( mi km ) Precip ( " mm )
12:53 am 00:53 Mostly Clear 59 15 58 14.4 96 96 N N/A 30.03 1017 8 13 N/A
1:07 am 01:07 Mostly Cloudy 59 15 58 14.4 96 96 N N/A 30.00 1016 9 14 N/A
1:21 am 01:21 Mostly Cloudy 58 14.4 58 14.4 100 100 SSW 5 7 30.03 1017 8 13 N/A
1:53 am 01:53 Mostly Cloudy 58 14.4 58 14.4 100 100 S 6 9 30.03 1017 9 14 N/A
2:53 am 02:53 Cloudy 60 15.6 58 14.4 93 93 SSW 8 13 30.04 1017 8 13 N/A
3:53 am 03:53 undefined 59 15 58 14.4 96 96 SSW 9 15 30.02 1017 N/A N/A
4:22 am 04:22 Cloudy 59 15 57 13.9 93 93 SSW 8 13 30.00 1016 9 14 N/A
4:53 am 04:53 Cloudy 59 15 57 13.9 93 93 SSW 7 11 30.02 1017 9 14 N/A
5:53 am 05:53 Cloudy 58 14.4 57 13.9 97 97 SSW 5 7 30.03 1017 8 13 N/A
6:53 am 06:53 Cloudy 58 14.4 57 13.9 97 97 SSW 7 11 30.04 1017 8 13 N/A
7:53 am 07:53 Cloudy 59 15 57 13.9 93 93 S 6 9 30.06 1018 8 13 N/A
8:53 am 08:53 Cloudy 60 15.6 57 13.9 90 90 S 7 11 30.06 1018 10 16 N/A
9:53 am 09:53 Mostly Cloudy 62 16.7 57 13.9 84 84 S 7 11 30.06 1018 10 16 N/A
10:53 am 10:53 Mostly Sunny 67 19.4 58 14.4 73 73 SSW 6 9 30.06 1018 10 16 N/A
11:53 am 11:53 Partly Cloudy 72 22.2 55 12.8 55 55 SW 7 11 30.05 1018 10 16 N/A
12:53 pm 12:53 Mostly Cloudy 75 23.9 55 12.8 50 50 W 9 15 30.04 1017 10 16 N/A
1:53 pm 13:53 Mostly Cloudy 76 24.4 58 14.4 54 54 WSW 8 13 30.03 1017 10 16 N/A
2:53 pm 14:53 Sunny 79 26.1 61 16.1 54 54 WSW 9 15 30.02 1017 10 16 N/A
3:53 pm 15:53 Sunny 80 26.7 61 16.1 52 52 SW 7 11 30.01 1016 10 16 N/A
4:53 pm 16:53 Mostly Sunny 80 26.7 59 15 49 49 SW 7 11 30.01 1016 10 16 N/A
5:53 pm 17:53 Partly Cloudy 79 26.1 59 15 50 50 W 6 9 30.01 1016 10 16 N/A
6:53 pm 18:53 Sunny 79 26.1 56 13.3 45 45 NW 8 13 30.02 1017 10 16 N/A
7:53 pm 19:53 Sunny 76 24.4 58 14.4 54 54 WNW 3 6 30.02 1017 10 16 N/A
8:53 pm 20:53 Clear 64 17.8 61 16.1 90 90 N N/A 30.03 1017 10 16 N/A
9:53 pm 21:53 Clear 62 16.7 61 16.1 96 96 N N/A 30.04 1017 10 16 N/A
10:53 pm 22:53 Clear 61 16.1 60 15.6 97 97 N N/A 30.04 1017 8 13 N/A
11:38 pm 23:38 Clear with Mist and Fog 60 15.6 59 15 96 96 N N/A 30.00 1016 3 4 N/A
11:53 pm 23:53 Clear with Mist and Fog 59 15 59 15 100 100 N N/A 30.04 1017 5 8 N/A

Powered by AerisWeather